Regional Weather Roundup
Issued by NWS Green Bay, WI

Home | Current Version | Previous Version | Graphics & Text | Print | Product List | Glossary Off
Versions: 1 2 3 4 5 6 7 8 9 10 11 12 13 14 15 16 17 18 19 20 21 22 23 24 25 26 27 28 29 30 31 32 33 34 35 36 37 38 39 40 41 42 43 44 45 46 47 48 49 50

000
ASUS43 KGRB 200010
RWRGRB

NORTH-CENTRAL AND NORTHEAST WISCONSIN REGIONAL WEATHER ROUNDUP
NATIONAL WEATHER SERVICE GREEN BAY WI
700 PM CDT TUE AUG 19 2014

WIZ005-009-010>012-018-019-200100-
NORTH CENTRAL WISCONSIN

CITY           SKY/WX    TMP DP  RH WIND       PRES   REMARKS
IRONWOOD       CLOUDY    57  55  94 NE6       29.75S
MANITOWISH WTR CLOUDY    64  60  87 NE6       29.77R
ARBOR VITAE    CLOUDY    65  60  82 NE5       29.76S
EAGLE RIVER    RAIN      62  58  87 NW6       29.76R
LAND O LAKES   CLOUDY    62  58  87 NW8       29.77S
RHINELANDER    CLOUDY    65  59  81 NW7       29.77R
PHILLIPS       CLOUDY    65  63  94 CALM      29.75S
ANTIGO         RAIN      64  63  96 W5        29.74S
TOMAHAWK       CLOUDY    65  60  82 CALM      29.76R
MERRILL        CLOUDY    67  64  90 N3        29.74S
$$

WIZ013-073-200100-
NORTHEAST WISCONSIN

CITY           SKY/WX    TMP DP  RH WIND       PRES   REMARKS
IRON MOUNTAIN  CLOUDY    68  60  75 NW10      29.71R
MARINETTE      CLOUDY    66  63  88 NW3       29.69R
OCONTO         CLOUDY    67  67  99 CALM      29.69R
$$

WIZ017-030-035>037-045-200100-
CENTRAL WISCONSIN

CITY           SKY/WX    TMP DP  RH WIND       PRES   REMARKS
MEDFORD        CLOUDY    66  63  88 N5        29.76R
WAUSAU         CLOUDY    67  64  90 NW7       29.73R
MOSINEE        MOCLDY    64  64 100 NW7       29.75R
MARSHFIELD     MOCLDY    72  62  71 W6        29.74S
WISC RAPIDS    PTCLDY    74  62  66 NW7       29.74S
STEVENS POINT  MOCLDY    72  61  69 NW6       29.73S
WAUPACA        CLEAR     76  63  62 W8        29.72R
SHAWANO        CLOUDY    73  65  74 NW7       29.70R
CLINTONVILLE   PTCLDY    72  61  68 NW14G20   29.71R
$$

WIZ038-039-048-051-200100-
FOX VALLEY

CITY           SKY/WX    TMP DP  RH WIND       PRES   REMARKS
NWS GREEN BAY  PTCLDY    73  65  75 W8        29.69R
APPLETON       PTCLDY    73  61  64 W9        29.71R
OSHKOSH        CLEAR     75  62  64 W6        29.71R
FOND DU LAC    CLEAR     75  61  61 W9        29.71S
$$

WIZ022-050-052-200100-
EAST CENTRAL WISCONSIN

CITY           SKY/WX    TMP DP  RH WIND       PRES   REMARKS
STURGEON BAY   CLOUDY    70  64  83 SW3       29.70R
MANITOWOC      CLOUDY    76  64  66 W10       29.70R
SHEBOYGAN      MOCLDY    75  64  68 W6        29.71R
$$

LMZ563-521-522-541>543-200100-
LAKESHORE

STATION/POSITION TIME  TEMP    WIND        PRES    VSBY  WAVE
                       AIR SEA DIR/SP/G                  HT/PER
                 (UTC) (F)     (DEG/KT/KT) (MB)    (MI)  (FT/S)
SHEBOYGAN LKSHOR 0000   68 64  180/ 10/ 11 1005.9R
KEWAUNEE LKSHORE 0000   70     230/  3/  5 1004.5S
ALGOMA MARINA    2300          260/  8/ 10   N/A
NORTHPORT PIER   0000   68     280/  1/  4 1005.1S
N MID LAKE BUOY  0000   63 62  200/  8/ 10 1004.6R         2/ 5
S GREEN BAY BUOY 0000   70     VRB  6      1006.6R
SISTER BAY LKSHO 2300   72        CALM       N/A
CHAMBERS ISLAND  0000   66     300/  4/ 13 1005.8R
MENOMINEE LKSHOR 0000   67     290/  4/  5 1006.1R
$$



USA.gov is the U.S. government's official web portal to all federal, state and local government web resources and services.